Regional Weather Roundup
Issued by NWS

Home | Current Version | Previous Version | Graphics & Text | Print | Product List | Glossary On
Versions: 1 2 3 4 5 6 7 8 9 10 11 12 13 14 15 16 17 18 19 20 21 22 23 24
000
ASUS45 KCYS 220510
RWRWY

WYOMING REGIONAL WEATHER ROUNDUP
NATIONAL WEATHER SERVICE CHEYENNE WY
1100 PM MDT TUE MAR 21 2017

NOTE:  "FAIR" INDICATES FEW OR NO CLOUDS BELOW 12,000 FEET
WITH NO SIGNIFICANT WEATHER AND/OR OBSTRUCTIONS TO VISIBILITY.

WYZ001-220600-
YELLOWSTONE NATIONAL PARK

CITY           SKY/WX    TMP DP  RH WIND       PRES   REMARKS
LK YELLOWSTONE   N/A     29  28  96 NW3       29.98F
W YELLOWSTONE  NOT AVBL

$$
WYZ002>013-054>058-071-098>099-220600-
NORTHERN WYOMING

CITY           SKY/WX    TMP DP  RH WIND       PRES   REMARKS
JACKSON        CLOUDY    37  34  87 SW6       29.99R WCI  33
CODY           FAIR      35  33  92 CALM      29.94F
GREYBULL       FAIR      42  38  85 CALM      29.91F
WORLAND        FAIR      38  37  97 S3        29.92F
SHERIDAN       FAIR      38  35  89 S7        29.92F WCI  33
BUFFALO        FAIR      37  33  85 SE15G24   29.93F WCI  28
GILLETTE       CLOUDY    35  33  92 S28G33    29.99F WCI  22
HULETT         FAIR      32  30  93 CALM      30.05F
NEWCASTLE      FAIR      37  30  75 SE20G26   30.12S WCI  27

$$
WYZ014>020-022>026-101>103-220600-
CENTRAL WYOMING

CITY           SKY/WX    TMP DP  RH WIND       PRES   REMARKS
BIG PINEY      FAIR      32  30  92 N3        30.01F
PINEDALE       CLOUDY    34  32  93 CALM      30.01F
DUBOIS         FAIR      36  32  87 CALM      30.00S
LANDER         FAIR      44  36  73 CALM      29.95F
RIVERTON       FAIR      41  36  82 NW8       29.96S
CASPER         FAIR      45  41  86 E9        29.98F
DOUGLAS        FAIR      46  37  71 S22G31    30.03F

$$
WYZ021-027>030-104>119-220600-
SOUTHERN WYOMING

CITY           SKY/WX    TMP DP  RH WIND       PRES   REMARKS
EVANSTON       MOCLDY    51  27  39 SW23G31   29.99S
KEMMERER         N/A     45  30  57 S6        30.02S
FORT BRIDGER   FAIR      51  29  43 SW14      30.04S
ROCK SPRINGS   FAIR      49  28  44 SW7       30.01F
DIXON            N/A     46  31  56 NE3       30.08S
RAWLINS        CLOUDY    49  26  41 SW6       30.05R
SARATOGA       MOCLDY    46  27  46 S15       30.07S
LARAMIE        FAIR      40  33  76 S21       30.10F WCI  30
CHEYENNE       FAIR      40  30  67 S14       30.13F WCI  32
TORRINGTON     FAIR      44  26  49 SE15G23   30.13F
PINE BLUFFS    FAIR      41  25  52 SE25G32   30.14S

$$




USA.gov is the U.S. government's official web portal to all federal, state and local government web resources and services.